Wind_Speed
4 5 5 6 6 7 7 8 9 9 10 10 11 12 14 14 15 15 16 16 17 17 18 19 19 19 19 19 19 19 19 19 19 19 18 17 16 16 15 14 13 13 12 12
6 6 7 7 7 8 9 10 11 11 12 13 14 15 16 16 17 17 18 19 19 19 20 20 21 21 21 21 21 21 21 21 21 20 19 19 18 17 16 15 14 14 13 12
7 8 9 9 10 11 11 12 13 14 14 15 16 17 18 19 20 20 21 22 22 23 23 23 23 23 23 24 23 23 23 23 23 22 21 21 20 19 18 17 16 15 14 13
10 10 11 11 12 13 14 14 15 16 17 18 19 20 21 22 23 24 24 24 25 25 26 26 26 26 27 27 26 26 26 26 25 25 24 23 22 21 20 19 18 17 16 15
12 12 13 13 14 16 17 17 18 19 20 21 22 23 24 26 27 27 28 28 29 29 30 30 30 30 30 30 30 29 29 29 28 28 27 26 25 24 23 22 21 20 18 17
15 16 16 16 17 18 20 20 22 23 24 25 26 27 28 29 31 32 32 33 33 34 34 34 34 34 33 33 33 33 32 32 31 30 30 29 28 27 25 25 24 22 21 20
18 19 19 20 21 22 23 24 25 26 28 29 30 31 32 33 34 35 36 36 37 38 38 38 38 37 36 36 36 36 35 34 34 33 32 32 31 30 29 27 26 25 24 22
21 22 22 23 24 24 26 27 28 29 31 33 34 35 36 37 38 39 40 41 41 41 41 42 42 41 40 39 39 39 39 37 36 36 36 34 34 33 32 31 29 28 26 25
24 25 26 27 27 28 29 30 32 33 35 36 37 38 40 41 42 42 43 44 44 44 44 44 44 44 43 42 41 41 41 40 40 39 39 38 37 36 35 34 32 31 29 28
27 28 29 29 30 31 32 34 35 37 38 40 41 42 43 44 45 46 47 47 47 47 47 46 46 46 46 45 45 44 44 43 42 42 42 41 40 39 38 37 35 34 32 31
30 31 32 32 33 35 36 37 39 40 41 43 44 45 46 47 48 49 49 49 49 49 49 48 48 47 48 47 47 46 45 45 44 44 44 43 42 42 41 39 38 37 35 34
33 34 35 35 37 38 39 40 41 43 44 45 46 48 49 50 51 51 51 51 51 51 51 50 49 49 48 48 48 47 46 45 45 44 44 44 44 44 44 42 41 40 39 37
37 37 38 38 40 41 42 43 44 46 47 48 49 51 51 53 53 53 53 53 53 52 51 51 50 50 49 49 48 47 46 45 44 44 44 44 44 45 45 45 44 43 41 40
39 40 41 42 43 44 45 46 48 49 50 52 53 53 54 54 55 54 54 54 53 53 52 51 50 50 49 48 47 46 46 45 45 44 44 44 45 46 46 46 46 45 44 43
42 43 44 45 46 47 48 49 51 52 53 54 54 55 56 56 55 55 55 54 53 52 51 50 49 48 48 48 47 46 46 45 45 45 45 45 45 46 47 47 47 47 46 46
44 45 47 48 49 50 51 52 53 54 54 55 55 55 56 56 56 56 54 53 52 51 50 49 48 48 47 47 47 47 46 46 46 46 46 46 46 46 47 48 48 48 48 48
46 47 49 50 51 52 53 54 55 55 55 55 55 56 56 56 55 54 53 53 52 51 50 50 49 48 47 47 47 46 45 45 45 45 46 46 46 46 47 48 48 48 48 48
48 49 50 51 52 53 54 55 55 55 55 55 55 56 56 56 55 54 53 52 52 51 51 50 50 48 47 47 47 46 46 45 45 45 45 45 46 47 47 48 48 48 48 49
50 50 51 52 53 54 54 55 55 55 55 55 55 56 56 56 55 54 53 52 52 52 50 49 49 48 47 47 46 46 45 44 44 44 45 45 45 47 47 48 48 48 49 48
51 52 52 53 53 54 54 54 55 55 55 56 56 56 56 56 56 55 53 52 52 52 50 49 48 47 46 45 45 44 43 43 43 42 43 44 44 45 47 48 49 48 49 49
52 53 53 53 53 54 54 55 55 56 56 57 57 57 57 56 56 55 54 53 51 51 50 50 49 47 45 44 43 43 43 42 42 42 42 43 43 44 45 47 49 48 48 48
54 54 54 54 54 54 55 55 56 56 56 56 57 57 57 56 55 54 53 53 52 51 51 50 48 46 44 43 42 42 42 42 42 41 41 41 42 42 44 45 47 48 48 48
55 55 55 55 55 55 55 55 56 56 56 56 56 57 57 56 55 54 53 51 51 50 49 47 45 43 42 42 42 42 42 42 41 41 41 41 42 42 42 43 45 46 47 47
56 56 56 55 55 55 54 54 55 55 56 56 56 56 55 55 53 53 52 50 49 47 46 44 42 41 41 41 41 41 41 40 40 39 40 40 40 40 41 41 42 43 45 46
56 55 55 54 54 54 54 54 55 55 55 54 54 54 54 53 52 50 48 47 46 45 44 43 42 42 41 40 40 39 39 38 37 37 37 38 38 38 39 40 40 40 42 43
55 55 54 54 55 55 54 54 54 54 54 53 52 52 51 50 48 46 45 44 43 43 42 42 41 40 39 38 38 37 36 35 34 34 33 34 35 35 36 37 38 39 40 41
55 55 55 54 54 54 54 54 54 53 53 52 50 49 48 46 44 43 42 42 42 42 41 40 39 38 37 35 35 34 32 32 31 31 30 30 31 32 34 36 37 37 39 40
Wind_Direction
328 321 321 321 318 317 313 314 314 315 314 312 308 304 303 303 302 300 298 295 292 289 287 285 285 286 286 287 288 289 290 289 289 290 291 293 296 299 303 308 311 314 318 322
319 316 316 314 314 312 310 309 310 311 312 310 306 305 304 303 303 301 299 297 294 292 289 287 285 284 284 284 284 285 287 288 287 286 287 288 289 291 293 296 300 302 305 308
318 315 312 313 311 308 308 308 308 308 309 309 308 306 304 303 302 301 299 297 294 292 291 289 286 283 281 281 280 281 282 284 284 283 283 283 284 284 285 287 290 292 293 295
312 310 310 311 309 306 304 305 306 305 305 306 306 305 303 303 301 300 300 298 296 294 292 291 289 286 284 282 280 279 279 279 280 280 280 280 280 279 279 280 282 284 284 285
306 307 307 307 306 304 303 303 303 303 304 303 303 303 303 302 301 301 300 299 297 295 293 291 289 287 285 283 281 279 277 276 276 277 276 276 276 276 275 274 275 277 278 278
303 304 304 304 302 300 300 299 300 302 303 302 301 301 301 300 299 299 299 297 297 295 293 292 290 288 286 284 282 280 277 275 274 274 274 274 273 272 271 270 270 271 272 272
302 302 302 302 301 299 298 299 299 300 300 301 301 300 299 298 297 296 296 296 295 293 291 290 288 287 286 284 281 279 277 275 273 271 271 270 270 270 268 267 266 267 268 267
299 300 301 301 300 299 298 298 299 299 299 299 299 299 298 297 296 296 296 295 294 293 292 290 288 286 285 283 281 279 276 274 271 270 269 268 267 267 266 265 263 263 263 264
298 299 300 300 299 299 298 299 300 301 301 300 299 299 298 297 297 296 296 296 295 294 293 290 288 286 284 283 281 278 276 273 270 267 266 265 265 264 263 262 261 260 260 260
297 298 298 298 298 299 299 300 300 301 301 302 301 299 299 298 297 297 296 296 295 293 292 291 288 286 284 282 280 278 276 273 271 267 265 264 262 261 261 260 259 258 257 257
296 296 296 297 297 298 299 299 300 301 301 302 301 301 300 298 298 298 297 295 294 293 292 291 288 286 285 283 280 278 276 274 271 268 265 263 261 260 258 258 257 256 256 255
293 294 295 296 297 298 298 299 299 300 301 301 301 301 300 299 299 298 298 296 295 294 293 291 289 287 285 283 280 278 276 274 271 268 265 262 259 257 256 255 254 253 253 253
292 293 294 295 296 297 298 298 299 300 301 301 301 301 300 300 299 299 299 298 297 295 293 292 290 287 285 282 280 277 275 272 270 268 265 262 258 256 254 253 252 252 251 251
292 293 293 294 296 297 297 298 299 300 300 300 301 301 300 300 300 299 299 298 297 296 294 293 291 288 285 282 280 277 275 272 269 267 263 261 258 255 254 252 250 249 249 249
292 293 294 295 296 297 297 298 299 300 300 301 300 300 300 300 300 299 299 298 297 296 295 293 291 289 286 283 280 277 274 271 268 266 262 259 257 255 253 252 250 248 246 246
292 293 294 295 296 297 298 299 299 300 300 300 300 300 300 301 301 300 299 298 297 296 295 293 292 289 287 284 282 278 274 270 267 265 261 258 256 254 253 252 251 248 246 244
293 294 295 295 296 297 298 299 300 300 300 301 301 301 301 301 301 300 299 298 297 297 296 295 293 290 288 285 283 280 275 270 267 265 262 259 256 254 252 250 249 247 244 243
295 295 296 297 298 298 299 299 300 300 300 301 301 301 302 302 301 300 299 298 297 296 296 295 295 292 289 286 283 280 277 272 268 266 263 259 256 253 251 249 247 246 243 242
294 296 297 298 298 299 299 299 300 300 301 301 301 301 301 302 301 299 299 298 298 296 295 294 293 292 289 287 284 281 277 274 270 266 264 261 256 252 250 248 246 245 242 240
294 296 297 298 299 299 299 300 300 301 301 301 301 301 301 301 301 299 298 298 298 297 296 294 293 292 289 287 284 280 277 274 270 266 264 261 257 253 250 247 246 245 242 239
295 296 297 298 298 299 299 300 300 301 301 301 302 302 301 300 300 299 298 297 297 296 296 295 294 292 289 286 283 280 277 275 272 268 265 262 259 255 250 247 245 244 242 239
294 295 296 297 298 299 299 300 301 301 302 302 302 301 301 301 300 298 298 297 296 295 295 295 293 291 289 286 284 281 278 275 272 269 265 261 258 255 252 247 245 243 241 239
294 295 296 297 297 298 299 299 300 301 301 301 301 301 301 301 300 299 298 297 296 296 296 295 293 290 288 287 286 283 280 275 272 268 265 261 258 255 252 249 245 243 240 238
293 294 295 296 297 297 298 299 299 300 300 301 301 301 301 301 300 300 300 299 297 296 295 295 293 290 288 288 287 285 282 276 271 268 265 262 257 253 250 247 244 241 238 236
293 293 294 295 296 297 298 297 298 298 299 300 301 301 301 301 301 301 301 300 299 298 297 296 294 291 288 287 287 285 281 277 272 268 265 261 256 251 248 245 242 239 235 234
292 293 294 294 296 297 297 297 297 298 298 299 300 300 301 302 302 302 301 301 301 300 299 297 295 292 289 287 287 285 281 276 271 267 263 257 252 250 246 242 240 236 232 231
291 291 292 294 295 295 296 296 296 297 297 298 299 300 301 301 301 301 301 301 302 301 300 299 297 295 293 289 287 285 280 276 271 266 260 255 251 247 244 240 236 232 230 228
Height
5829 5828 5828 5827 5827 5826 5826 5825 5825 5824 5823 5822 5820 5819 5818 5816 5815 5813 5811 5810 5808 5807 5806 5804 5803 5802 5800 5799 5798 5796 5795 5793 5792 5791 5789 5787 5786 5784 5782 5780 5778 5776 5774 5772
5827 5826 5826 5825 5825 5824 5823 5822 5822 5821 5820 5818 5817 5815 5814 5812 5811 5809 5807 5805 5804 5802 5800 5799 5798 5796 5795 5794 5792 5791 5789 5788 5787 5785 5784 5783 5781 5780 5778 5777 5775 5773 5771 5769
5825 5824 5824 5823 5823 5821 5820 5819 5818 5817 5817 5814 5813 5811 5809 5808 5806 5804 5802 5800 5798 5796 5794 5793 5791 5790 5789 5787 5786 5785 5783 5782 5781 5779 5778 5777 5776 5775 5774 5773 5771 5770 5768 5766
5823 5823 5821 5823 5819 5818 5817 5816 5814 5813 5811 5810 5808 5806 5804 5802 5800 5798 5796 5793 5791 5789 5787 5786 5784 5782 5781 5780 5778 5777 5776 5775 5774 5773 5772 5771 5770 5770 5769 5767 5766 5765 5764 5763
5820 5818 5818 5818 5816 5814 5812 5811 5809 5808 5806 5804 5802 5800 5798 5795 5792 5790 5788 5786 5783 5781 5779 5777 5776 5774 5772 5771 5770 5769 5768 5767 5766 5765 5764 5764 5763 5763 5762 5761 5761 5760 5759 5758
5815 5814 5813 5814 5811 5808 5808 5806 5804 5802 5800 5798 5795 5793 5792 5788 5785 5782 5780 5777 5775 5772 5770 5768 5766 5764 5763 5761 5760 5759 5758 5758 5757 5756 5756 5756 5755 5755 5754 5754 5754 5753 5753 5753
5810 5809 5808 5807 5805 5804 5802 5801 5797 5795 5792 5790 5787 5785 5783 5780 5777 5773 5770 5768 5765 5762 5759 5757 5755 5753 5752 5750 5749 5748 5748 5747 5747 5746 5746 5746 5746 5746 5746 5746 5746 5746 5746 5746
5805 5803 5804 5800 5798 5797 5795 5792 5789 5787 5784 5781 5779 5775 5772 5769 5766 5763 5760 5757 5753 5750 5747 5744 5742 5740 5739 5738 5736 5735 5735 5735 5735 5735 5735 5735 5735 5736 5736 5736 5737 5738 5738 5739
5799 5799 5795 5793 5790 5788 5786 5784 5781 5778 5775 5772 5769 5765 5762 5759 5755 5752 5748 5744 5741 5737 5734 5731 5728 5726 5724 5723 5722 5722 5721 5721 5721 5722 5722 5723 5723 5724 5725 5726 5727 5728 5729 5730
5791 5789 5786 5784 5782 5780 5777 5774 5771 5768 5765 5761 5758 5754 5750 5747 5743 5739 5735 5731 5727 5723 5720 5717 5714 5711 5709 5708 5707 5706 5706 5706 5706 5707 5708 5709 5710 5711 5712 5714 5716 5717 5719 5720
5782 5780 5777 5775 5773 5770 5767 5764 5761 5757 5753 5749 5746 5742 5738 5734 5730 5725 5721 5716 5712 5708 5704 5701 5698 5695 5693 5691 5690 5690 5690 5689 5690 5690 5691 5693 5695 5697 5699 5701 5703 5705 5707 5709
5773 5770 5768 5766 5762 5760 5756 5753 5750 5746 5742 5737 5733 5729 5724 5720 5715 5710 5706 5701 5697 5692 5688 5684 5681 5678 5676 5674 5672 5672 5672 5672 5673 5673 5675 5676 5679 5681 5684 5687 5689 5692 5694 5697
5761 5759 5757 5755 5751 5748 5745 5741 5737 5733 5729 5724 5720 5715 5710 5705 5700 5695 5690 5685 5680 5676 5672 5668 5665 5662 5659 5657 5655 5654 5654 5655 5656 5657 5658 5660 5662 5664 5668 5671 5674 5677 5681 5684
5750 5748 5745 5742 5739 5736 5732 5729 5725 5720 5715 5710 5705 5700 5695 5690 5684 5679 5674 5669 5664 5659 5655 5651 5648 5645 5641 5639 5638 5637 5637 5637 5639 5640 5641 5643 5645 5648 5651 5654 5658 5662 5666 5669
5738 5735 5732 5730 5727 5723 5719 5715 5711 5706 5701 5696 5691 5685 5679 5674 5669 5663 5658 5653 5648 5643 5639 5635 5631 5628 5625 5623 5621 5621 5620 5620 5621 5622 5624 5626 5629 5631 5634 5638 5641 5646 5650 5654
5725 5722 5719 5716 5713 5709 5705 5701 5696 5692 5686 5681 5675 5670 5664 5658 5653 5647 5642 5636 5632 5627 5623 5619 5616 5613 5609 5607 5605 5604 5603 5603 5603 5605 5606 5609 5611 5614 5617 5621 5624 5629 5634 5639
5712 5709 5706 5703 5699 5695 5690 5686 5681 5676 5671 5665 5660 5654 5649 5643 5638 5632 5627 5621 5616 5612 5607 5603 5600 5597 5593 5590 5588 5587 5586 5586 5586 5587 5589 5591 5594 5597 5600 5603 5607 5612 5617 5622
5698 5695 5691 5688 5684 5680 5675 5670 5665 5660 5655 5649 5644 5639 5633 5627 5622 5617 5612 5607 5602 5598 5593 5587 5584 5580 5577 5574 5572 5570 5569 5569 5569 5570 5571 5573 5576 5579 5582 5586 5590 5595 5600 5605
5684 5681 5677 5673 5669 5664 5659 5655 5650 5644 5639 5634 5629 5624 5618 5612 5606 5601 5596 5591 5586 5582 5578 5573 5569 5564 5561 5558 5555 5554 5553 5552 5552 5553 5554 5556 5558 5562 5565 5569 5573 5578 5583 5589
5669 5666 5662 5658 5653 5648 5644 5639 5634 5629 5624 5618 5613 5608 5603 5597 5590 5585 5581 5576 5571 5565 5561 5557 5553 5549 5546 5542 5539 5538 5537 5536 5536 5537 5538 5539 5542 5545 5548 5552 5557 5562 5567 5573
5654 5650 5646 5642 5638 5633 5628 5623 5619 5614 5609 5603 5597 5592 5587 5581 5575 5570 5565 5561 5557 5550 5546 5542 5537 5533 5530 5527 5525 5523 5521 5520 5520 5521 5522 5524 5525 5528 5532 5536 5540 5546 5551 5557
5638 5635 5631 5627 5623 5618 5613 5608 5603 5598 5593 5587 5582 5576 5571 5566 5560 5555 5549 5544 5540 5535 5531 5526 5522 5518 5515 5512 5510 5508 5506 5505 5505 5505 5506 5508 5510 5512 5516 5520 5525 5530 5536 5542
5622 5619 5615 5611 5607 5603 5599 5593 5588 5583 5578 5572 5566 5561 5555 5550 5544 5539 5535 5530 5524 5520 5515 5511 5507 5504 5501 5498 5495 5493 5492 5490 5490 5490 5491 5493 5495 5497 5501 5505 5510 5515 5521 5527
5606 5603 5599 5595 5591 5587 5583 5578 5573 5568 5562 5557 5551 5545 5540 5535 5530 5524 5518 5514 5510 5505 5501 5498 5493 5490 5487 5485 5482 5480 5477 5476 5476 5476 5477 5478 5480 5482 5486 5490 5495 5500 5506 5512
5590 5586 5583 5579 5576 5572 5567 5563 5558 5553 5548 5543 5537 5531 5525 5519 5515 5511 5506 5501 5496 5492 5488 5484 5480 5477 5474 5471 5469 5466 5464 5463 5462 5462 5463 5464 5466 5469 5473 5477 5482 5487 5493 5499
5574 5571 5567 5563 5560 5556 5551 5547 5543 5538 5533 5528 5524 5518 5512 5507 5501 5497 5493 5488 5484 5480 5476 5472 5468 5464 5461 5458 5456 5454 5452 5451 5450 5450 5450 5452 5454 5457 5461 5465 5470 5475 5481 5488
5558 5555 5551 5548 5544 5539 5535 5531 5527 5523 5518 5513 5510 5505 5500 5495 5490 5485 5481 5477 5473 5468 5464 5460 5456 5453 5449 5447 5444 5442 5440 5439 5439 5439 5440 5441 5444 5447 5450 5454 5459 5465 5471 5477